TimeCDT,TemperatureF,Dew PointF,Humidity,Sea Level PressureIn,VisibilityMPH,Wind Direction,Wind SpeedMPH,Gust SpeedMPH,PrecipitationIn,Events,Conditions,WindDirDegrees,DateUTC
12:51 AM,84.0,70.0,63,29.87,10.0,South,9.2,-,N/A,,Scattered Clouds,180,2013-09-02 05:51:00
1:51 AM,82.9,71.1,67,29.87,10.0,SSE,9.2,-,N/A,,Partly Cloudy,160,2013-09-02 06:51:00
2:51 AM,82.0,71.1,69,29.87,10.0,South,5.8,-,N/A,,Partly Cloudy,190,2013-09-02 07:51:00
3:51 AM,80.1,72.0,76,29.87,10.0,South,5.8,-,N/A,,Clear,180,2013-09-02 08:51:00
4:51 AM,80.1,73.9,81,29.88,10.0,South,8.1,-,N/A,,Clear,170,2013-09-02 09:51:00
5:51 AM,79.0,73.9,84,29.88,10.0,South,3.5,-,N/A,,Scattered Clouds,180,2013-09-02 10:51:00
6:51 AM,79.0,73.9,84,29.89,10.0,South,4.6,-,N/A,,Clear,180,2013-09-02 11:51:00
7:51 AM,80.1,75.0,85,29.91,10.0,SSE,3.5,-,N/A,,Scattered Clouds,150,2013-09-02 12:51:00
8:51 AM,82.9,73.0,72,29.92,10.0,Calm,Calm,-,N/A,,Scattered Clouds,0,2013-09-02 13:51:00
9:51 AM,86.0,71.1,61,29.94,10.0,SSW,5.8,-,N/A,,Scattered Clouds,200,2013-09-02 14:51:00
10:51 AM,90.0,69.1,50,29.94,10.0,South,5.8,-,N/A,,Scattered Clouds,190,2013-09-02 15:51:00
11:51 AM,93.0,66.9,42,29.94,10.0,Variable,5.8,-,N/A,,Scattered Clouds,0,2013-09-02 16:51:00
12:51 PM,96.1,66.9,38,29.91,10.0,SE,4.6,-,N/A,,Scattered Clouds,140,2013-09-02 17:51:00
1:51 PM,97.0,64.9,35,29.88,10.0,NNE,4.6,-,N/A,,Scattered Clouds,20,2013-09-02 18:51:00
2:51 PM,100.0,63.0,29,29.85,10.0,Variable,5.8,-,N/A,,Scattered Clouds,0,2013-09-02 19:51:00
3:51 PM,100.0,63.0,29,29.82,10.0,Variable,6.9,-,N/A,,Scattered Clouds,0,2013-09-02 20:51:00
4:51 PM,100.0,62.1,29,29.79,10.0,ESE,10.4,18.4,N/A,,Scattered Clouds,110,2013-09-02 21:51:00
5:51 PM,99.0,61.0,28,29.78,10.0,SSE,9.2,-,N/A,,Scattered Clouds,150,2013-09-02 22:51:00
6:51 PM,97.0,61.0,30,29.79,10.0,ESE,15.0,-,N/A,,Scattered Clouds,120,2013-09-02 23:51:00
7:51 PM,91.9,66.9,44,29.81,10.0,SSE,13.8,24.2,N/A,,Scattered Clouds,160,2013-09-03 00:51:00
8:51 PM,89.1,66.9,48,29.86,10.0,SSE,17.3,23.0,N/A,,Scattered Clouds,150,2013-09-03 01:51:00
9:51 PM,86.0,66.9,53,29.90,10.0,South,10.4,19.6,N/A,,Scattered Clouds,180,2013-09-03 02:51:00
10:51 PM,84.9,68.0,57,29.91,10.0,South,8.1,-,N/A,,Scattered Clouds,190,2013-09-03 03:51:00
11:51 PM,84.0,66.9,56,29.92,10.0,SW,5.8,-,N/A,,Scattered Clouds,230,2013-09-03 04:51:00